Showing default

HULIANWANG DIGUI-06, 62328

Orbit data source: Space-Track

HULIANWANG DIGUI-06, 62328 is a payload satellite owned by Zhongguo Xingwang (CN) in LEO that was launched on Mon, 16 Dec 2024 UTC via a CHANG ZHENG 5B/YZ-2 launch vehicle from the Wenchang Satellite Launch Center (WSC). Payload-class satellites include a variety of spacecraft equipped with specific instruments for various scientific and technological missions. These include communications satellites like Starlink; space stations such as the ISS; scientific satellites like the Hubble; Earth observation satellites from companies like Planet Labs, Umbra, and HawkEye 360; GPS; miniature CubeSats for education and research; and military/defense satellites.

Loading next visibility...
Identifier
62328, 2024-240F
Orbit
LEO
Country
Flag of CNCN / PRC
Related business
Manufacturer
CAST?
Mission
Operational Civil Communications
Bus & Motor
GUOWANG C, Unknown motor
Mass
~800 kg wet, ~800 kg dry
Launch date (UTC)
2024-12-16 (1 year ago)
Launch vehicle
CHANG ZHENG 5B/YZ-2
Launch site
Wenchang Satellite Launch Center (WSC)
Object type
Payload
Rocket body
Debris
Shape & HBR
Box + 2 Pan, 5.0 m
Radar Cross Section
5.935 m², Large (>1 m²)

Expand to show TLE details & history
Last TLE update: 13 hours ago

TLE from 13 hours ago
0 HULIANWANG DIGUI-06
1 62328U 24240F   25341.29510028  .00000105  00000-0  21012-3 0  9990
2 62328  86.4973  47.8754 0001776  90.3169 269.8168 13.24415108 47240
Epoch: 2025-12-07T07:04Z
TLE epoch observation values (Epoch: 2025-12-07T07:04:56.664Z)
Latitude
-0.00006°
Longitude
-134.67124°
Altitude
1,170.802 km
Speed
7.268 km/s
True Right ascension
03h 11m 30s
True Declination
0° 00' 00"
Sunlit
Object was in full shadow at epoch
Visualization orbit readout
Latitude
Unknown
Longitude
Unknown
Altitude
Unknown
Speed
Unknown
Apparent Right ascension
Unknown
Apparent Declination
Unknown
Sunlit
N/A
Visualization observer readout
Local Sidereal Time
18:33:52
Azimuth
Unknown
Elevation
Unknown
Doppler factor
Unknown
Orbital elements
Apogee altitude
1,166.362 km
Perigee altitude
1,163.683 km
Semi-major axis
7,543.16 km
Eccentricity
0.00018
Inclination
86.4973°
RAAN
47.8754°
Arg. of periapsis
90.3169°
True anomaly
269.79645°
Mean anomaly
269.8168°
Eccentric anomaly
269.80662°
Mean motion
3.31294 °/min
Orbital period
108.66 mins
BSTAR
0.00021012
Loading maneuver chart data...
Computing Atmospheric mass density...
Loading historical data...
Loading historical data...
Loading historical data...
Loading historical data...
Loading historical data...
Loading historical data...
Loading historical data...

Documentation

Showing up to 5 results
|